Regional Weather Roundup
Issued by NWS New Orleans/Baton Rouge, LA

Home | Current Version | Previous Version | Text Only | Print | Product List | Glossary On
Versions: 1 2 3 4 5 6 7 8 9 10 11 12 13 14 15 16 17 18 19 20 21 22 23 24 25 26 27 28 29 30 31 32 33 34 35 36 37 38 39 40 41 42 43 44 45 46 47 48 49 50
926
ASUS44 KLIX 272001
RWRLIX
NEW ORLEANS REGIONAL WEATHER ROUNDUP
NATIONAL WEATHER SERVICE NEW ORLEANS LA
300 PM CDT SUN JUL 27 2014

NOTE: "FAIR" INDICATES FEW OR NO CLOUDS BELOW 12,000 FEET WITH NO
      SIGNIFICANT WEATHER AND/OR OBSTRUCTIONS TO VISIBILITY.
      SKY/WX - SKY CONDITION AND SIGNIFICANT WEATHER.
      TMP - AIR TEMPERATURE.     DP    - DEWPOINT TEMPERATURE.
      RH  - RELATIVE HUMIDITY.   PRES  - PRESSURE.
      HI  - HEAT INDEX.          WCI   - WIND CHILL INDEX.

*  THESE STATIONS ARE NOT NWS OR FAA STATIONS AND ARE NOT UNDER
   NWS QUALITY CONTROL.

LAZ038-040-048-061>063-065>067-069-272100-
SOUTHEAST LOUISIANA

CITY           SKY/WX    TMP DP  RH WIND       PRES   REMARKS
N.O. AUDUBON     N/A     96  75  50 MISG        N/A  HX 108
N.O. INTL ARPT MOSUNNY   93  70  46 W7        30.05F HX  99
N.O. LAKEFRONT MOSUNNY   91  75  59 NW8       30.06F HX 101
N.O. DOWNTOWN* CLOUDY    93  72  49 SW10G17   30.05F HX 100
SLIDELL        MOSUNNY   92  71  50 SW8       30.05F HX  98
BATON ROUGE    PTSUNNY   93  73  52 NW8       30.05F HX 102
BOOTHVILLE     MOSUNNY   88  77  69 SW12      30.08F HX 100
BELLE CHASSE   PTSUNNY   92  72  51 SW7       30.05F HX  99
BOGALUSA*        N/A     93  71  47 W9        30.06F HX 100
GALLIANO*      NOT AVBL
NEW ROADS*       N/A     92  73  52 SW5       30.05F HX 100
GONZALES*        N/A     92  73  52 W5        30.05F HX 101
HAMMOND*       MOSUNNY   93  68  43 W8        30.07F HX  97
HOUMA*         NOT AVBL
PORT FOURCHON* PTCLDY    88  77  70 W12       30.10F HX 100

$$

MSZ070-080>082-272100-
SOUTHERN MISSISSIPPI

CITY           SKY/WX    TMP DP  RH WIND       PRES   REMARKS
MCCOMB         MOSUNNY   91  71  51 W10       30.06F HX  97
GULFPORT       MOSUNNY   95  73  48 W5G18     30.04F HX 104
BILOXI         SUNNY     91  77  63 SW14      30.04F HX 103
PASCAGOULA     MOSUNNY   91  77  63 VRB7      30.04F HX 104
STENNIS ARPT*  MOSUNNY  N/A N/A N/A N5        30.05F

$$

COASTAL OBSERVATIONS
LAKE AND NEARSHORE STATIONS

STATION/POSITION TIME  TEMP    WIND        PRES    WAVE
                       AIR SEA DIR/SP/G            HT/PER
                 (UTC) (F)     (DEG/KT/KT) (MB)    (FT/S)
PASCAGOULA       1900   89     230/ 11/ 14 1017.3
WAVELAND YACHT   1900   90     300/  7/  9 1017.1
GRAND ISLE       1900   88 86  260/  7/ 10 1019.4
SOUTHWEST PASS   1900   87 85  250/ 11/ 12 1019.5
NEW CANAL        1900   87 85   10/  5/  6 1018.6
SHELL BEACH      1900   86 83  360/  5/  5 1018.1

OFFSHORE STATIONS

STATION/POSITION TIME  TEMP    WIND        PRES    WAVE
                       AIR SEA DIR/SP/G            HT/PER
                 (UTC) (F)     (DEG/KT/KT) (MB)    (FT/S)
64 S DAUPHIN ISL 1950   85 88  280/  8/ 10 1018.9

$$




USA.gov is the U.S. government's official web portal to all federal, state and local government web resources and services.